Regional Weather Roundup
Issued by NWS

Home | Current Version | Previous Version | Graphics & Text | Print | Product List | Glossary Off
Versions: 1 2 3 4 5 6 7 8 9 10 11 12 13 14 15 16 17 18 19 20 21 22 23 24 25 26 27 28 29 30 31 32 33 34 35 36 37 38 39 40 41 42 43 44 45 46 47 48 49 50

000
ASUS43 KTOP 280759
RWRKS

WEATHER ROUNDUP FOR KANSAS
NATIONAL WEATHER SERVICE GOODLAND KS
300 AM CDT FRI AUG 28 2015

NOTE:  "FAIR" INDICATES FEW OR NO CLOUDS BELOW 12,000 FEET WITH NO
SIGNIFICANT WEATHER AND/OR OBSTRUCTIONS TO VISIBILITY.

KSZ001>006-013>018-027>032-041>047-280900-
NORTHWEST KANSAS

CITY           SKY/WX    TMP DP  RH WIND       PRES   REMARKS
GOODLAND       CLEAR     64  59  83 NW10      30.03S
HAYS           MOCLDY    79  57  47 SW21G28   29.88S
HILL CITY      CLOUDY    74  64  71 W5        29.91S
RUSSELL        MOCLDY    75  66  73 S18       29.87F
$$

KSZ061>065-074>080-084>089-280900-
SOUTHWEST KANSAS

CITY           SKY/WX    TMP DP  RH WIND       PRES   REMARKS
DODGE CITY     CLOUDY    70  62  76 S15       29.95F
ELKHART          N/A     70  61  73 W6          N/A
GARDEN CITY    MOCLDY    68  64  87 SW3       29.95F
GREAT BEND     CLOUDY    73  64  73 S17       29.89S
LIBERAL        CLOUDY    72  63  73 W7        30.00S
PRATT          CLOUDY    72  66  83 S23G29    29.94F
$$

KSZ066>073-081>083-090>101-280900-
SOUTHEAST KANSAS

CITY           SKY/WX    TMP DP  RH WIND       PRES   REMARKS
CHANUTE        CLOUDY    68  64  87 SE8       29.99S
COFFEYVILLE    MOCLDY    66  64  93 S6        29.98F
HUTCHINSON     CLOUDY    75  66  73 S21       29.93F
NEWTON         CLOUDY    73  63  68 S15       29.96F
WICHITA INTL   CLOUDY    74  70  87 S9        29.96F
WICHITA JABRA  CLOUDY    73  67  81 S14       29.95F
WICHITA MCCONL CLOUDY    72  66  83 S15       29.96F
WINFIELD       CLOUDY    72  66  81 MISG      30.01R
$$

KSZ007>012-019>026-033>040-048>060-102>105-280900-
NORTHEAST KANSAS

CITY           SKY/WX    TMP DP  RH WIND       PRES   REMARKS
CONCORDIA      CLOUDY    72  68  87 S22G32    29.87F
EMPORIA        CLOUDY    69  63  81 S12       29.96F
LAWRENCE       CLOUDY    70  64  81 VRB3      29.97S
MANHATTAN      RAIN      71  68  90 SW12      29.93R FOG
OLATHE IND     CLOUDY    69  67  93 S13       29.98F
OLATHE EXE     CLOUDY    67  66  97 S9        29.98S
SALINA         CLOUDY    76  67  73 S14G21    29.91F
TOPEKA BILLARD CLOUDY    70  64  81 SE8       29.95F
TOPEKA FORBES  CLOUDY    71  62  73 S6        29.96F
$$



USA.gov is the U.S. government's official web portal to all federal, state and local government web resources and services.